Regional Weather Roundup
Issued by NWS

Home | Current Version | Previous Version | Graphics & Text | Print | Product List | Glossary On
Versions: 1 2 3 4 5 6 7 8 9 10 11 12 13 14 15 16 17 18 19 20 21 22 23 24 25 26 27 28 29 30 31 32 33 34 35 36 37 38 39 40 41 42 43 44 45 46 47 48 49 50
000
ASUS43 KDMX 221006
RWRIA

WEATHER ROUNDUP FOR IOWA
NATIONAL WEATHER SERVICE DES MOINES IA
400 AM CST WED NOV 22 2017

NOTE: "FAIR" INDICATES FEW OR NO CLOUDS BELOW 12,000 FEET WITH NO
SIGNIFICANT WEATHER AND/OR OBSTRUCTIONS TO VISIBILITY.

* - THESE STATIONS ARE NOT NWS STATIONS...THUS NOT UNDER NWS
QUALITY CONTROL.  THEY ALSO DO NOT REPORT WEATHER SUCH
AS PRECIPITATION OR FOG.

IAZ001>003-012>014-020>022-031>034-043>046-221100-
   NORTHWEST IOWA

CITY           SKY/WX    TMP DP  RH WIND       PRES   REMARKS
CARROLL *      CLOUDY    12   9  85 W7        30.37S WCI   2
CHEROKEE *     CLOUDY    12  10  90 CALM      30.36F
DENISON *      CLOUDY    14  10  85 CALM      30.39F
LE MARS *      CLOUDY    12   9  85 CALM      30.37S
ORANGE CITY *  CLOUDY    14   9  79 CALM      30.34S
SHELDON *      CLOUDY     9   5  85 CALM      30.33F
SIOUX CITY     CLOUDY    13   8  81 CALM      30.38F
SPENCER        CLOUDY     9   5  84 W3        30.36S
STORM LAKE *   CLOUDY    12   7  79 NW6       30.35S WCI   3
$$

IAZ055>058-069>071-079>083-090>094-221100-
   SOUTHWEST IOWA

CITY           SKY/WX    TMP DP  RH WIND       PRES   REMARKS
ATLANTIC *     CLOUDY    14  10  85 CALM      30.38F
AUDUBON *      CLOUDY    12   9  85 CALM      30.37S
CLARINDA *     CLOUDY    14  12  92 CALM      30.43S
COUNCIL BLFS * CLOUDY    16  12  86 CALM      30.37F
CRESTON *      CLOUDY    16  10  79 N5        30.38F WCI   9
HARLAN  *      CLOUDY    12  10  92 CALM      30.41F
RED OAK *      CLOUDY    14  10  85 CALM      30.40F
SHENANDOAH *   CLOUDY    18  12  79 CALM      30.42F
$$

IAZ047>049-059>061-072>074-084-221100-
   CENTRAL IOWA

CITY           SKY/WX    TMP DP  RH WIND       PRES   REMARKS
AMES           CLOUDY    17  11  77 W3        30.37F
ANKENY *       CLOUDY    18  10  73 W7        30.40S WCI   8
BOONE *        CLOUDY    16  10  79 NW6       30.36F WCI   7
CHARITON *     CLOUDY    18  12  79 NW6       30.38S WCI   9
DES MOINES     CLOUDY    19  11  70 NW5       30.39F WCI  12
GRINNELL*      CLOUDY    16  12  86 NW7       30.38F WCI   6
KNOXVILLE *    CLOUDY    18   9  68 NW6       30.38S WCI   9
MARSHALLTOWN   CLOUDY    15  11  83 NW7       30.36F WCI   5
NEWTON *       CLOUDY    18  12  79 NW7       30.38S WCI   8
PELLA *        CLOUDY    18  12  79 NW6       30.41S WCI   9
PERRY *          N/A     14  10  83 NW5       30.38F WCI   6
$$

IAZ004>006-015-016-023>025-035-036-221100-
   NORTH CENTRAL IOWA

CITY           SKY/WX    TMP DP  RH WIND       PRES   REMARKS
ALGONA *       CLOUDY    14  10  85 W6        30.35S WCI   5
CLARION *      CLEAR     12  10  92 NW6       30.36S WCI   3
ESTHERVILLE    CLOUDY     8   6  92 W6        30.35S WCI  -2
FORT DODGE *   CLOUDY    15   9  76 N5        30.37S WCI   8
MASON CITY     CLOUDY    13   8  81 NW7       30.35F WCI   3
FOREST CITY *    N/A     18  12  79 NW6       30.35R WCI   9
WEBSTER CITY * CLEAR     14   9  79 NW8       30.35S WCI   3
IOWA FALLS *     N/A     16  12  85 NW3       30.36F
$$

IAZ007>011-017>019-026>030-037>042-050>054-066-221100-
   NORTHEAST IOWA

CITY           SKY/WX    TMP DP  RH WIND       PRES   REMARKS
CEDAR RAPIDS   CLOUDY    13   9  84 W8        30.35R WCI   2
CHARLES CITY * CLOUDY    16  12  86 N6        30.34F WCI   7
CLINTON *      CLOUDY    15  12  88 NW9       30.35R WCI   3
DECORAH *      CLOUDY    16  12  86 N9        30.31F WCI   4
DUBUQUE        CLOUDY    18  12  77 NW8       30.32R WCI   8
MONTICELLO *   CLOUDY    16  12  86 NW3       30.35R
OELWEIN *      CLOUDY    16  14  93 NW6       30.34R WCI   7
WATERLOO       CLOUDY    16  11  80 NW9       30.36S WCI   4
$$

IAZ064-065-067-068-078-221100-
   EAST CENTRAL IOWA

CITY           SKY/WX    TMP DP  RH WIND       PRES   REMARKS
DAVENPORT      CLOUDY    18  13  80 NW7       30.37R WCI   9
IOWA CITY      CLOUDY    20  13  74 NW7       30.39S WCI  11
MT. PLEASANT * CLOUDY    20  13  76 NW7       30.38S WCI  11
MUSCATINE *    CLOUDY    19  14  79 W6        30.39R WCI  11
QUAD CITIES    CLOUDY    20  13  74 W6        30.36R WCI  12
$$

IAZ062-063-075>077-085>089-095>099-221100-
   SOUTHEAST IOWA

CITY           SKY/WX    TMP DP  RH WIND       PRES   REMARKS
BURLINGTON     CLOUDY    20  15  81 NW7       30.37S WCI  11
FAIRFIELD *    CLOUDY    18  12  79 NW7       30.38S WCI   8
FORT MADISON * CLOUDY    19  16  86 NW6       30.39R WCI  11
KEOKUK *       CLOUDY    21  16  79 NW5       30.38R WCI  15
OSKALOOSA *      N/A     17  13  84 NW6       30.38F WCI   9
CENTERVILLE *    N/A     18  14  86 CALM      30.38F
OTTUMWA        CLOUDY    18  11  74 NW7       30.37F WCI   9
WASHINGTON *   CLOUDY    18  14  86 NW7       30.39R WCI   8
$$

ABBREVIATIONS USED IN REMARKS
   TC - TEMPERATURES IN CELSIUS
  WCI - WIND CHILL INDEX
   HX - HEAT INDEX
  VSB - VISIBILITY
$$




USA.gov is the U.S. government's official web portal to all federal, state and local government web resources and services.